User: anonymous   Login
Location: Chowchilla Mountain
(37.5599°N, 119.7546°W)
Time: 06:46:00
(UTC+00:00)
Language:

Cosmos 1733 Rocket - Orbit

View from above orbital plane
View from above orbital plane
View from above satellite
View from above satellite

Ground track
Ground track

The orbit data is extracted from the following two-line orbital elements,

1 16612U 86018B   24281.80833672  .00001997  00000-0  22683-3 0  9993
2 16612  82.5144 310.5061 0016539 342.6740  17.3909 14.85753974966416
Epoch (UTC): 07 October 2024 19:24:00
Eccentricity: 0.0016539
inclination: 82.5144°
perigee height: 599 km
apogee height: 623 km
right ascension of ascending node: 310.5061°
argument of perigee: 342.6740°
revolutions per day: 14.85753974
mean anomaly at epoch: 17.3909°
orbit number at epoch: 96641

The dashed part of the orbit path shows where the satellite is in the earth's shadow,  

DLR